Location: *
(47.2969°N, 10.2930°E)
Time: 23:30:01
(UTC+00:00)

Iridium 4 Rocket - Pass Details

Date: 09 April 2020
Orbit: 586 x 904 km, 86.9° (Epoch: 03 June)

Event Time Altitude Azimuth Distance (km) Brightness Sun altitude
Rises 19:52:02 0° 1° (N) 2,855 7.0 -18.1°
Reaches altitude 10° 19:54:18 10° 6° (N) 1,931 6.0 -18.4°
Maximum altitude 19:58:25 53° 84° (E) 722 3.1 -19.0°
Enters shadow 19:59:07 47° 121° (ESE) 785 3.1 -19.1°
